www.pogodaiklimat.ru

Погода и климат >> Архив погоды >> Мексика >> Маталапа


ПОГОДА в Маталапе

  • Прогноз погоды в Маталапе
  • Монитор погоды в Маталапе

АРХИВ ПОГОДЫ в Маталапе

Время (UTC), дата Ветер
(напр.,м/с)
 
Видим.   Явления Облачность Т
(С)
Тd
(С)
f
(%)
Тe
(С)
Тes
(С)
Комфортность P
(гПа)
Po
(гПа)
Тmin
(С)
Tmax
(С)
R
(мм)
R24
(мм)
S
(см)
15 9.07 СЗ 1 25 км мгла {туман} 3/1 900 м
[Cu hum Cs]
+28.4 +25.0 82 +41 +50 опасность
перегрева
1014.7 999.5
18 9.07 В 1 20 км мгла {туман} 1/1 1000 м
[Cu hum]
+32.6 +25.6 67 +48 +71 опасность
перегрева
1013.3 998.2 +24.5 +33.6
21 9.07 В 1 20 км мгла {туман} 5/1 1110 м
[Cu med, cong Cs]
+34.8 +25.0 57 +48 +63 опасность
перегрева
1010.9 995.9
00 10.07 штиль 0 20 км мгла {туман} 4/1 1200 м
[Sc diur, vesp Cs]
+32.0 +25.0 67 +46 +48 опасность
перегрева
1010.3 995.4 +24.5 +37.1
12 10.07 штиль 0 20 км мгла {туман} 6/6 1110 м
[Sc diur, vesp]
+24.6 +24.0 96 +34 +34 очень
душно
1014.3 999.0 +24.5 +37.1
15 10.07 СЗ 1 20 км мгла {туман} 3/1 900 м
[Cu hum Cs]
+28.4 +25.3 83 +41 +51 опасность
перегрева
1014.9 999.6
18 10.07 В 1 20 км мгла {туман} 1/1 1000 м
[Cu hum]
+33.4 +25.0 62 +47 +70 опасность
перегрева
1014.0 998.8 +24.5 +34.0
21 10.07 СЗ 1 20 км мгла {туман} 3/3 1110 м
[Cu med, cong]
+35.0 +24.4 54 +47 +60 опасность
перегрева
1011.2 996.2
00 11.07 В 1 20 км мгла {туман} 3/1 1110 м
[Cu med, cong Cs]
+34.0 +25.6 62 +49 +51 опасность
перегрева
1010.7 995.8 +24.5 +37.3
12 11.07 штиль 0 20 км мгла {туман} 1/0
[Cs]
+23.6 +23.0 96 +31 +31 очень
душно
1013.3 998.0 +23.5 +37.3
15 11.07 ЮВ 1 20 км мгла {туман} 1/1 900 м
[Cu hum]
+28.6 +24.9 80 +41 +51 опасность
перегрева
1013.2 998.0
18 11.07 В 1 20 км мгла {туман} ясно +33.0 +25.4 64 +47 +73 опасность
перегрева
1012.7 997.5 +23.5 +33.8
21 11.07 СЗ 1 20 км мгла {туман} 1/1 1110 м
[Cu hum]
+36.0 +24.8 53 +49 +66 опасность
перегрева
1008.5 993.5
00 12.07 СЗ 1 20 км мгла {туман} 1/1 1110 м
[Cu med, cong]
+35.0 +25.2 57 +49 +51 опасность
перегрева
1007.5 992.7 +23.5 +37.5
12 12.07 штиль 0 25 км мгла {туман} ясно +23.4 +22.8 96 +33 +33 очень
душно
1010.3 995.0 +23.3 +37.5
15 12.07 штиль 0 25 км мгла {туман} ясно +28.8 +24.8 79 +41 +54 опасность
перегрева
1011.6 996.4
18 12.07 В 1 25 км мгла {туман} ясно +33.2 +25.4 64 +48 +73 опасность
перегрева
1010.6 995.5 +23.3 +34.0
21 12.07 В 1 25 км мгла {туман} 4/3 1110 м
[Cu med, cong Ac trans]
+35.1 +24.4 54 +48 +59 опасность
перегрева
1008.0 993.0
00 13.07 В 1 25 км мгла {туман} 3/0
[Cs]
+35.0 +25.2 57 +49 +51 опасность
перегрева
1006.7 991.9 +23.3 +37.0
12 13.07 штиль 0 25 км мгла {туман} 1/0 2000 м
[Ac trans]
+22.8 +22.2 96 +31 +31 очень
душно
1010.9 995.5 +22.7 +37.0
15 13.07 штиль 0 25 км мгла {туман} 4/0
[Cs]
+27.0 +24.1 84 +37 +49 очень
душно
1011.4 996.2
18 13.07 ЮВ 1 25 км мгла {туман} 3/0
[Cs]
+33.6 +25.8 64 +49 +73 опасность
перегрева
1010.4 995.2 +22.7 +34.2
12 14.07 штиль 0 25 км мгла {туман} ясно +22.6 +22.2 98 +30 +30 очень
душно
1012.1 996.9 +22.5 +36.4
15 14.07 штиль 0 25 км мгла {туман} ясно +28.0 +25.2 85 +41 +53 опасность
перегрева
1013.3 998.0
18 14.07 В 1 25 км мгла {туман} 3/3 1000 м
[Cu hum]
+33.4 +25.0 62 +47 +65 опасность
перегрева
1012.6 997.4 +22.5 +34.4
12 15.07 штиль 0 20 км мгла {туман} 9/9 1110 м
[Sc diur, vesp]
+26.9 +25.5 92 +39 +39 очень
душно
1012.5 997.4 +25.4 +38.0
15 15.07 В 1 20 км мгла {туман} 4/4 900 м
[Cu Sc]
+29.0 +24.7 78 +41 +48 опасность
перегрева
1013.6 998.4
18 15.07 В 1 20 км мгла {туман} 4/4 1000 м
[Cu med, cong]
+32.0 +24.2 63 +44 +59 опасность
перегрева
1012.6 997.5 +25.4 +33.0
21 15.07 СЗ 1 20 км мгла {туман} 3/3 1110 м
[Cu hum]
+35.4 +25.0 55 +49 +61 опасность
перегрева
1010.5 995.5
00 16.07 В 1 20 км мгла {туман} 3/3 1110 м
[Cu med, cong]
+36.2 +24.1 50 +48 +49 опасность
перегрева
1008.6 993.8 +25.4 +37.6

 

Местоположение метеостанции Маталапа (Мексика): широта 21.32 долгота -98.81 высота над уровнем моря 132 м.

В архиве по умолчанию представлена погода в Маталапе за последнюю неделю. Архивные данные за месяц целиком и за предыдущие месяцы, начиная с января 2011 года, Вы можете получить, выбрав интересующий диапазон дат из раскрывающегося списка и нажав кнопку "Ввод!".


*Определитесь, кто Вы:
робот инопланетянин человек

Внимание! Время в таблицах - всемирное. Для получения местного времени необходимо прибавить поправку, которая равна -6 ч.

Смотрите также архив погоды в соседних городах и на ближайших метеорологических станциях:

Погода в Тамуине (Мексика) (76 км)
Погода в Пачуке (Мексика) (133 км)
Погода в Рио-Верде (Мексика) (139 км)
Погода в Тампико (Мексика) (139 км)
Погода в Тулансинго (Мексика) (145 км)
Погода в Туспане (Мексика) (152 км)
Погода в Керетаро (Мексика) (185 км)
Погода в Мехико (Мексика) (217 км)
Погода в Институте Географии (Мексика) (226 км)
Погода в Тлашкале (Мексика) (230 км)

Пояснения к столбцам:

Ветер - указаны скорость ветра в м/с - средняя за 10 мин, порывы в срок и между сроками (в фигурных скобках) и направление, откуда дует ветер: С - северный, СВ - северо-восточный, В - восточный, ЮВ - юго-восточный, Ю - южный, ЮЗ - юго-западный, З - западный, СЗ - северо-западный.
Видимость - горизонтальная дальность видимости в метрах или километрах. При видимости от 1 до 10 км при отсутствии осадков обычно наблюдается дымка, при ухудшении видимости до 1 км и менее - туман. В сухую погоду видимость может ухудшаться дымом, пылью или мглою.
Явления - указаны атмосферные явления, наблюдавшиеся в срок или в последний час перед сроком; фигурными скобками обозначены явления, наблюдавшиеся между сроками (за 1-3 часа до срока); квадратными скобками обозначены град или гололедные отложения с указанием их диаметра в мм.
Облачность - указаны через наклонную черту общая и нижняя облачность в баллах и высота нижней границы облаков в метрах; квадратными скобками обозначены формы облаков: Ci - перистые, Cs - перисто-слоистые, Cc - перисто-кучевые, Ac - высококучевые, As - высокослоистые, Sc - слоисто-кучевые, Ns - слоисто-дождевые, Cu - кучевые, Cb - кучево-дождевые. Подробнее классификацию облаков см. в Атласе облаков (PDF).
T - Температура воздуха - температура, измеренная на высоте 2 м над землей.
Td - Температура точки росы - температура, при понижении до которой содержащийся в воздухе водяной пар достигнет насыщения.
f - Относительная влажность воздуха - влажноcть воздуха, измеренная на высоте 2 м над землей.
Te - Эффективная температура - температура, которую ощущает одетый по сезону человек в тени. Характеристика душности погоды. При расчете учитывается влияние влажности воздуха и скорости ветра на теплоощущения человека.
Tes - Эффективная температура на солнце - температура, которую ощущает человек, с поправкой на солнечный нагрев. Характеристика знойности погоды. Зависит от высоты солнца над горизонтом, облачности и скорости ветра. Ночью, в пасмурную погоду, а также при ветре 12 м/с и более поправка равна нулю.
P - Атмосферное давление - приведенное к уровню моря атмосферное давление.
Po - Атмосферное давление - измеренное на уровне метеостанции атмосферное давление.
Tmin - Минимальная температура - минимум температуры воздуха на высоте 2 м над землей.
Tmax - Максимальная температура - максимум температуры воздуха на высоте 2 м над землей.
R - Количество осадков - Количество выпавших осадков за период времени, мм. При наведении курсора мыши на число - период времени, за который выпало указанное количество осадков.
R24 - Количество осадков - Количество выпавших осадков за 24 часа, мм.
S - Снежный покров - Высота снежного покрова, см. При наведении курсора мыши на число - состояние снежного покрова и степень покрытия местности в баллах.